CAPE
0 0 0 0 0 0 0 0 0 0 0 0 0 0 0 0 0 0 0 0 0 0 0 0 0 0 0 0 0 0 0 0 0 0 0 0 0 0 0 0 0 0 0
0 0 0 0 0 0 0 0 0 0 0 0 0 0 0 0 0 0 0 0 0 0 0 0 0 0 0 0 0 0 0 0 0 0 0 0 0 0 0 0 0 0 0
0 0 0 0 0 0 0 0 0 0 0 0 0 0 0 0 0 0 0 0 0 0 0 0 0 0 0 0 0 0 0 0 0 0 0 0 0 0 0 0 0 0 0
0 0 0 0 0 0 0 0 0 0 0 0 0 0 0 0 0 0 0 0 0 0 0 0 0 0 0 0 0 0 0 0 0 0 0 0 0 0 0 0 0 0 0
0 0 0 0 0 0 0 0 0 0 0 0 0 0 0 0 0 0 0 0 0 0 0 0 0 0 0 0 0 0 0 0 0 0 0 0 0 0 0 0 0 0 0
0 0 0 0 0 0 0 0 0 0 0 0 0 0 0 0 0 0 0 0 0 0 0 0 0 0 0 0 0 0 0 0 0 0 0 0 0 0 0 0 0 0 0
0 0 0 0 0 0 0 0 0 0 0 0 0 0 0 0 0 0 0 0 0 0 0 0 0 0 0 0 0 0 0 0 0 0 0 0 0 0 0 0 0 0 0
0 0 0 0 0 0 0 0 0 0 0 0 0 0 0 0 0 0 0 0 0 0 0 0 0 0 0 0 0 0 0 0 0 0 0 0 0 0 0 0 0 0 0
0 0 0 0 0 0 0 0 0 0 0 0 0 0 0 0 0 0 0 0 0 0 0 0 0 0 0 0 0 0 0 0 0 0 0 0 0 0 0 0 0 0 0
0 0 0 0 0 0 0 0 0 0 0 0 0 0 0 0 0 0 0 0 0 0 0 0 0 0 0 0 0 0 0 0 0 0 0 0 0 0 0 0 0 0 0
0 0 0 0 0 0 0 0 0 0 0 0 0 0 0 0 0 0 0 0 0 0 0 0 0 0 0 0 0 0 0 0 0 0 0 0 0 0 0 0 0 0 0
0 0 0 0 0 0 0 0 0 0 0 0 0 0 0 0 0 0 0 0 0 0 0 0 0 0 0 0 0 0 0 0 0 0 0 0 0 0 0 0 0 0 0
0 0 0 0 0 0 0 0 0 0 0 0 0 0 0 0 0 0 0 0 0 0 0 0 0 0 0 0 0 0 0 0 0 0 0 0 0 0 0 0 0 0 0
0 0 0 0 0 0 0 0 0 0 0 0 0 0 0 0 0 0 0 0 0 0 0 0 0 0 0 0 0 0 0 0 0 0 0 0 0 0 0 0 0 0 0
0 0 0 0 0 0 0 0 0 0 0 0 1 4 0 0 0 0 0 0 0 0 0 0 0 0 0 0 0 0 0 0 0 0 0 0 0 0 0 0 0 0 0
0 0 0 0 0 0 0 0 0 0 0 0 0 1 4 0 0 0 0 0 0 0 0 0 0 0 0 2 5 1 0 0 2 1 0 0 8 0 4 2 0 0 0
0 0 0 0 0 0 0 0 0 0 0 0 0 0 1 2 1 0 0 0 0 0 0 0 0 0 0 6 4 2 1 9 5 2 0 11 8 1 0 19 12 0 0
0 0 0 0 0 0 0 0 0 0 0 0 0 0 0 1 4 2 0 0 0 0 0 0 0 0 0 0 1 7 15 1 8 2 0 3 1 0 0 0 0 0 0
0 0 0 0 0 0 0 0 0 0 0 0 0 0 0 0 0 2 0 0 0 0 0 0 0 0 0 0 1 9 11 5 11 1 0 5 0 0 4 0 0 0 0
0 0 0 0 0 0 0 0 0 0 0 0 1 3 2 0 0 0 7 0 0 0 0 0 0 0 0 0 1 14 8 10 17 1 0 16 0 0 14 0 0 0 0
0 0 0 0 0 0 0 2 3 3 3 13 12 8 7 19 2 1 0 1 0 0 0 0 0 0 0 0 11 20 12 16 21 9 7 0 8 4 1 10 0 0 0
0 0 0 0 0 0 5 7 16 11 8 24 2 11 22 28 19 0 0 0 0 0 0 0 0 0 6 11 16 22 46 48 39 27 0 0 31 1 16 0 0 0 0
0 0 0 0 0 2 7 10 17 21 18 22 4 12 14 3 8 3 0 0 0 0 0 0 0 0 4 1 11 56 62 45 13 0 0 0 2 11 9 1 0 0 0
0 2 0 2 2 2 4 10 22 29 19 10 3 0 0 9 4 0 0 0 0 0 0 0 0 5 9 8 16 28 29 24 3 17 2 11 4 0 4 0 0 0 0
0 2 3 9 7 4 7 7 26 20 14 9 3 2 4 1 4 12 1 0 0 0 0 0 3 15 15 15 31 31 1 1 3 8 5 0 0 0 0 0 0 0 0
0 4 5 18 10 10 6 17 22 10 12 7 3 3 4 2 15 1 0 13 22 29 35 43 34 9 24 34 43 18 7 36 29 0 0 0 0 0 0 0 0 0 0
CIN
0 0 0 0 0 0 0 0 0 0 0 0 0 0 0 0 0 0 0 0 0 0 0 0 0 0 0 0 0 0 0 0 0 0 0 0 0 0 0 0 0 0 0
0 0 0 0 0 0 0 0 0 0 0 0 0 0 0 0 0 0 0 0 0 0 0 0 0 0 0 0 0 0 0 0 0 0 0 0 0 0 0 0 0 0 0
0 0 0 0 0 0 0 0 0 0 0 0 0 0 0 0 0 0 0 0 0 0 0 0 0 0 0 0 0 0 0 0 0 0 0 0 0 0 0 0 0 0 0
0 0 0 0 0 0 0 0 0 0 0 0 0 0 0 0 0 0 0 0 0 0 0 0 0 0 0 0 0 0 0 0 0 0 0 0 0 0 0 0 0 0 0
0 0 0 0 0 0 0 0 0 0 0 0 0 0 0 0 0 0 0 0 0 0 0 0 0 0 0 0 0 0 0 0 0 0 0 0 0 0 0 0 0 0 0
0 0 0 0 0 0 0 0 0 0 0 0 0 0 0 0 0 0 0 0 0 0 0 0 0 0 0 0 0 0 0 0 0 0 0 0 0 0 0 0 0 0 0
0 0 0 0 0 0 0 0 0 0 0 0 0 0 0 0 0 0 0 0 0 0 0 0 0 0 0 0 0 0 0 0 0 0 0 0 0 0 0 0 0 0 0
0 0 0 0 0 0 0 0 0 0 0 0 0 0 0 0 0 0 0 0 0 0 0 0 0 0 0 0 0 0 0 0 0 0 0 0 0 0 0 0 0 0 0
0 0 0 0 0 0 0 0 0 0 0 0 0 0 0 0 0 0 0 0 0 0 0 0 0 0 0 0 0 0 0 0 0 0 0 0 0 0 0 0 0 0 0
0 0 0 0 0 0 0 0 0 0 0 0 0 0 0 0 0 0 0 0 0 0 0 0 0 0 0 0 0 0 0 0 0 0 0 0 0 0 0 0 0 0 0
0 0 0 0 0 0 0 0 0 0 0 0 0 0 0 0 0 0 0 0 0 0 0 0 0 0 0 0 0 0 0 0 0 0 0 0 0 0 0 0 0 0 0
0 0 0 0 0 0 0 0 0 0 0 0 0 0 0 0 0 0 0 0 0 0 0 0 0 0 0 0 0 0 0 0 0 0 0 0 0 0 0 0 0 0 0
0 0 0 0 0 0 0 0 0 0 0 0 0 0 0 0 0 0 0 0 0 0 0 0 0 0 0 0 0 0 0 0 0 0 0 0 0 0 0 0 0 0 0
0 0 0 0 0 0 0 0 0 0 0 0 0 0 0 0 0 0 0 0 0 0 0 0 0 0 0 0 0 0 0 0 0 0 0 0 0 0 0 0 0 0 0
0 0 0 0 0 0 0 0 0 0 0 0 -1 -3 0 0 0 0 0 0 0 0 0 0 0 0 0 0 0 0 0 0 0 0 0 0 0 0 0 0 0 0 0
0 0 0 0 0 0 0 0 0 0 0 0 0 -1 -2 0 0 0 0 0 0 0 0 0 0 0 0 -53 -2 -0 0 0 -5 -7 -0 -0 -1 0 0 0 0 0 0
0 0 0 0 0 0 0 0 0 0 0 0 0 -0 -1 -1 -1 0 0 0 0 0 0 0 0 0 0 -19 -1 0 -1 -1 -2 -3 0 -1 -0 -1 0 -0 -0 0 0
0 0 0 0 0 0 0 0 0 0 0 0 0 0 0 -0 -1 -3 -4 0 0 0 0 0 0 0 0 0 -0 0 -5 -5 -2 -2 0 -6 -4 0 0 0 0 0 0
0 0 0 0 0 0 0 0 -4 -2 -0 0 0 0 0 0 0 -1 -0 0 0 0 0 0 0 0 0 0 0 -0 -5 -3 -3 -11 0 0 -1 0 0 0 0 0 0
0 0 0 0 0 0 0 0 -0 -0 -1 -0 -1 -0 0 0 0 0 -0 0 -6 0 0 0 0 0 0 0 0 -1 -5 -2 -1 -6 0 -0 0 0 -0 -0 0 0 0
0 0 0 0 0 0 -0 0 0 -0 0 0 -0 -2 -10 0 0 -0 0 -2 -0 0 0 0 0 0 0 0 0 0 -1 -1 -1 -1 -1 0 0 0 -12 -0 0 0 0
0 0 0 0 -0 -0 0 0 0 -0 -1 0 -4 0 0 0 -0 -0 0 0 0 0 0 0 0 0 -5 -0 -0 -0 0 -0 -0 -0 0 -0 0 -0 -2 -1 0 0 0
0 0 -0 -0 -0 0 0 0 0 0 0 0 -1 -0 -3 -0 0 -1 0 0 0 0 0 0 0 0 -7 -6 0 0 0 0 -2 -0 -0 0 0 -2 -3 -19 0 0 0
0 0 -0 -0 -0 -0 0 -0 0 0 0 0 0 -0 -0 -1 -2 -0 0 0 0 0 0 0 -1 -4 -1 -1 -0 -0 0 -1 -8 -1 -1 -1 -11 -4 -39 0 0 0 0
0 0 0 -0 -0 -0 0 -0 0 0 -0 -0 0 -0 0 -0 -0 -10 -37 -17 0 0 0 -0 -0 -0 -0 -0 -0 0 0 -0 -1 -2 -1 0 0 0 0 0 0 0 0
0 -0 -0 0 -0 0 -2 0 0 -0 0 0 0 0 0 -0 -0 -2 -1 -10 -2 0 0 0 -0 -1 -0 0 0 -0 -0 0 -0 -0 0 0 0 0 0 0 0 0 0
Wind_Speed
6 5 6 7 8 7 8 8 7 7 5 4 4 4 4 4 4 5 6 6 5 4 6 5 5 5 7 8 6 2 6 4 3 2 2 3 6 6 5 5 5 6 6
6 6 7 7 7 6 8 8 7 6 4 3 2 1 2 3 3 4 5 6 6 5 3 5 6 7 5 6 7 7 3 3 6 5 2 3 5 3 5 4 5 6 4
5 6 7 6 6 7 7 6 6 5 3 4 3 3 3 3 4 4 4 5 6 6 6 5 4 4 6 7 7 8 8 7 4 5 5 2 6 1 1 4 5 6 5
6 6 6 6 6 6 7 7 7 6 4 6 4 4 2 2 3 3 3 6 7 7 6 6 5 4 4 6 5 7 9 5 5 1 6 1 5 5 3 1 3 5 6
7 9 8 7 8 7 7 7 7 7 6 5 3 2 3 3 3 4 6 6 6 6 6 6 5 5 4 5 8 6 8 8 8 5 3 3 1 2 3 4 3 2 4
8 9 8 7 7 7 7 7 8 8 8 6 7 5 6 6 4 4 4 5 4 5 7 6 5 5 5 6 6 8 8 10 10 7 6 6 6 6 5 3 4 4 3
8 9 8 7 7 8 9 8 8 9 9 8 8 8 8 7 7 6 4 6 4 4 7 7 6 4 5 6 6 6 8 10 10 12 9 9 7 5 4 5 3 5 3
8 9 7 7 7 8 9 9 10 10 10 9 9 7 8 5 5 6 5 5 5 6 7 8 7 7 7 6 6 5 7 9 11 14 13 9 9 6 5 7 6 2 3
7 8 7 7 8 8 9 9 11 12 11 11 10 9 8 8 7 9 7 6 6 6 8 7 8 7 7 7 7 5 7 9 11 12 13 12 9 7 7 5 6 8 5
7 7 7 8 8 10 11 9 10 13 14 13 11 10 9 8 9 8 9 8 8 7 10 9 8 8 8 7 6 5 7 8 9 9 11 11 10 8 9 7 6 5 7
7 7 8 9 11 10 10 13 11 12 13 11 11 11 11 10 9 8 8 8 9 8 10 10 9 9 9 7 6 6 7 8 10 11 11 13 13 8 8 8 5 5 5
8 8 10 12 12 13 14 15 15 13 14 15 11 15 14 13 11 9 9 8 9 8 10 9 10 10 10 8 7 7 7 7 9 12 10 13 8 11 10 9 11 9 5
8 10 10 11 13 14 15 16 16 14 18 15 16 16 13 14 15 11 10 9 9 10 8 8 9 10 8 8 7 7 9 9 9 10 11 13 11 10 9 9 10 9 7
11 11 11 12 13 15 17 17 16 18 14 15 19 15 13 14 15 13 10 11 11 10 9 9 8 8 8 7 6 7 10 11 11 11 12 13 13 13 13 12 12 11 9
13 14 14 15 17 18 18 17 17 17 17 18 17 17 17 14 15 15 11 12 12 11 9 9 8 8 8 6 6 8 11 12 12 10 11 12 15 20 17 9 11 12 10
15 16 19 19 19 19 19 19 19 19 18 19 19 19 17 18 16 13 12 12 13 12 9 9 8 9 8 16 19 19 13 13 14 12 11 13 22 21 23 22 25 20 16
16 20 21 19 19 19 19 20 20 20 19 19 19 19 18 17 16 16 13 13 12 12 10 9 8 10 9 19 23 25 14 15 15 15 11 13 12 19 12 26 29 27 28
19 18 17 19 19 19 20 19 19 19 19 20 20 19 19 19 17 16 14 11 11 11 10 9 9 10 9 22 26 26 17 15 17 15 12 15 15 14 13 12 13 13 13
15 15 15 17 19 20 21 19 20 20 19 19 20 19 19 19 18 17 13 10 9 9 10 9 9 10 13 23 26 23 15 14 17 13 12 17 15 19 24 13 13 10 5
14 15 16 17 18 21 21 21 21 20 20 20 20 18 18 18 17 17 14 14 13 10 10 10 9 16 18 22 26 23 11 15 13 11 14 28 17 24 25 14 13 12 7
17 17 16 15 19 20 21 21 20 20 20 19 16 17 14 18 15 15 14 12 7 13 7 11 12 14 14 15 25 27 15 13 12 10 10 10 24 20 17 21 13 12 11
19 18 16 17 20 20 19 20 21 20 20 19 16 17 13 12 11 14 10 8 9 7 10 11 11 10 12 17 23 28 28 22 14 12 9 10 23 20 24 19 19 21 14
15 16 17 20 21 19 18 21 22 21 20 17 14 14 14 10 11 11 12 7 7 8 9 9 10 10 8 9 24 27 24 24 9 8 12 18 22 20 20 24 24 18 6
15 16 18 18 22 19 19 20 22 20 20 17 14 13 12 13 10 6 7 7 7 8 9 9 10 10 8 9 10 10 8 15 8 12 11 14 20 19 18 15 11 6 5
17 16 17 17 20 19 19 22 20 21 19 18 12 11 9 11 10 9 8 7 9 9 8 9 10 9 10 10 17 14 8 7 9 13 11 11 11 10 9 8 6 5 4
16 16 18 19 20 19 20 21 20 20 18 18 9 8 8 9 8 7 7 15 19 21 22 25 18 11 19 25 23 21 20 19 21 13 12 10 9 10 8 7 6 3 6
Wind_Direction
322 351 1 1 2 11 16 14 20 6 23 359 5 3 359 346 0 357 2 360 330 271 236 246 231 191 199 222 204 192 192 213 160 100 318 284 237 233 225 210 214 220 217
347 347 347 358 5 3 4 5 10 9 16 17 322 277 295 310 304 331 338 350 348 351 292 242 231 209 220 206 188 187 204 215 181 154 99 322 322 279 230 212 215 222 210
318 329 333 324 339 354 345 345 349 343 357 4 352 349 345 336 337 335 321 329 340 346 347 313 264 230 213 229 195 193 192 221 197 225 147 125 226 337 285 227 214 211 209
314 302 310 316 316 312 327 337 333 330 341 353 2 358 296 288 259 265 286 307 322 328 330 329 319 272 228 231 218 211 206 179 195 230 242 320 141 177 308 291 243 216 218
273 273 282 289 296 300 315 317 315 315 313 317 299 295 296 254 274 297 309 308 305 310 309 313 310 303 277 248 239 229 214 208 210 195 143 185 54 85 139 254 281 281 227
299 289 277 291 296 317 319 318 314 297 296 302 303 290 278 288 301 301 302 289 291 294 296 292 284 275 266 256 245 238 218 224 229 209 192 175 169 193 163 190 215 211 257
307 308 276 293 312 317 315 315 310 294 293 298 296 291 285 276 259 262 265 283 279 277 282 280 276 274 267 263 249 243 235 225 224 223 218 219 216 153 165 144 178 207 234
296 300 282 285 299 308 307 306 300 286 279 279 279 279 272 258 262 255 259 255 252 259 269 271 263 269 278 271 259 245 246 235 233 230 222 223 221 189 173 167 148 187 243
297 290 287 296 293 289 284 279 283 283 274 272 278 275 273 262 252 257 251 247 257 259 259 256 249 256 264 267 269 257 260 248 237 235 230 222 216 210 214 179 164 184 178
309 316 299 287 285 278 279 280 279 275 273 273 268 267 256 257 259 258 254 249 255 257 270 271 254 253 254 259 263 267 268 254 245 241 231 225 223 202 209 203 193 176 179
285 285 277 272 276 281 279 282 286 279 280 274 270 272 273 264 260 251 257 244 249 241 244 253 257 247 246 249 247 261 271 270 259 242 232 230 220 212 204 199 196 177 152
270 272 285 295 289 284 286 285 286 281 282 283 281 287 285 282 261 251 253 241 240 239 241 243 245 246 242 240 245 254 266 268 276 254 228 231 219 221 206 198 200 200 193
288 289 286 279 277 286 291 291 289 286 292 280 294 280 281 281 270 260 266 261 258 269 244 233 241 244 238 234 239 254 269 266 261 265 240 230 209 207 213 201 197 203 192
294 291 293 298 302 309 307 301 295 297 289 288 292 278 282 278 272 264 262 266 264 263 265 267 263 259 246 239 233 245 266 269 263 260 252 234 214 206 206 209 203 195 187
296 303 305 308 311 304 301 299 297 299 300 296 290 290 289 277 273 266 261 265 262 256 249 259 256 247 250 248 250 250 255 258 257 255 258 241 220 211 215 212 212 187 188
306 311 313 313 307 307 306 305 304 301 300 297 293 292 288 286 275 258 259 262 263 259 251 244 246 263 253 263 278 286 274 264 256 256 261 254 241 236 228 233 227 204 180
311 316 311 309 311 309 311 309 307 306 303 300 296 292 290 283 276 273 272 260 262 258 250 247 249 261 250 263 278 284 271 268 263 256 253 264 236 221 217 232 224 218 206
312 309 310 310 310 310 308 305 303 301 301 298 295 293 291 285 282 280 273 261 258 251 251 248 246 254 249 269 281 280 270 269 266 251 251 260 223 218 198 227 211 196 202
303 304 306 306 306 306 302 304 303 299 295 294 292 291 291 289 288 279 273 264 258 253 253 252 253 250 260 271 277 276 269 266 259 245 252 254 208 202 201 210 189 171 170
301 305 305 308 310 309 306 307 303 301 296 292 290 293 287 285 283 287 280 287 265 251 252 254 246 258 274 276 273 276 270 265 254 246 261 255 196 192 196 202 179 162 165
308 315 320 318 307 309 312 308 301 297 297 293 289 302 279 281 276 276 276 274 263 265 244 260 272 269 264 266 273 277 267 254 247 254 231 199 184 191 206 198 180 168 141
321 325 325 317 318 318 315 312 308 303 300 294 290 296 287 274 283 280 269 267 261 250 265 275 275 264 267 273 282 280 268 253 245 238 185 177 180 180 213 169 153 139 132
319 324 321 318 322 320 319 313 314 311 305 300 293 298 296 284 280 280 275 257 259 259 268 269 275 280 273 279 290 287 282 262 218 151 162 165 174 182 152 149 133 125 126
325 323 320 318 321 320 317 316 317 319 316 301 290 297 298 288 278 257 256 252 254 261 266 271 277 276 280 280 288 285 285 128 129 154 167 156 123 129 129 114 105 108 120
331 325 321 320 319 322 319 321 325 323 318 314 288 289 291 280 278 273 264 259 261 255 268 268 273 272 285 283 288 290 122 129 159 167 120 106 101 104 96 87 92 95 94
328 324 322 323 322 323 319 326 327 326 323 324 298 281 285 284 281 276 280 277 282 285 285 283 285 284 278 284 278 135 134 141 123 106 105 102 110 108 110 111 104 90 106